Location: Evensen
(52.5775°N, 9.5258°E)
Time: 19:41:04
(UTC+00:00)

CZ-2C R/B - Pass Details

Date: 15 May 2026
Orbit: 703 x 901 km, 98.2° (Epoch: 7 June)

Event Time Altitude Azimuth Distance (km) Brightness Sun altitude
Rises 22:58:37 0° 17° (NNE) 3,496 7.7 -18.2°
Reaches altitude 10° 23:01:04 10° 21° (NNE) 2,568 6.7 -18.3°
Maximum altitude 23:06:44 57° 100° (E) 1,059 3.6 -18.3°
Enters shadow 23:09:27 31° 165° (SSE) 1,544 4.0 -18.3°
